Wind_Speed
62 60 56 52 47 41 32 30 30 35 29 30 26 23 23 23 22 24 28 29 31 33 29 27 29 32 24 17 20 20 19 19 19 21 26 30 29 31 35 36 37 39 43 41
66 66 61 55 50 43 34 32 34 36 36 34 29 26 24 22 22 23 27 31 31 30 23 24 24 23 20 19 19 21 18 17 15 17 23 25 24 26 27 30 32 36 41 40
69 69 64 55 49 46 39 35 36 39 42 40 31 28 25 24 23 24 25 29 25 15 21 22 22 19 19 21 21 20 15 13 13 12 18 20 21 21 23 26 29 32 38 41
73 72 63 54 55 52 47 41 38 41 44 44 37 30 30 27 24 22 22 21 12 13 16 12 14 13 10 8 19 17 15 10 7 9 15 16 16 14 17 20 24 27 29 32
74 70 63 61 57 55 51 45 42 44 48 48 44 37 34 29 25 22 21 17 11 10 16 18 13 8 5 7 13 15 14 6 11 14 15 13 9 9 11 13 15 17 18 19
74 73 65 62 62 58 54 47 49 50 52 52 47 42 39 36 31 24 26 21 14 6 3 11 21 23 23 15 7 9 11 10 16 19 21 20 17 15 12 10 9 9 10 12
74 72 68 66 65 62 56 56 57 55 52 52 50 48 45 41 35 30 29 22 21 14 5 5 2 6 8 11 17 10 6 14 19 19 19 18 14 13 12 10 9 12 16 14
73 72 69 68 66 63 62 62 59 57 54 54 52 50 47 43 41 37 30 26 30 28 17 15 8 6 12 12 8 6 15 15 7 13 15 7 14 17 15 18 23 24 27 26
72 72 70 70 68 66 66 66 63 61 59 58 56 54 53 49 43 35 31 28 38 39 35 33 19 11 8 12 11 17 15 10 8 13 15 15 19 19 19 27 31 28 29 32
69 69 70 71 70 69 69 67 65 62 59 59 58 56 53 49 42 42 41 39 42 45 47 34 29 24 11 14 17 22 17 6 15 28 30 25 37 42 41 36 35 40 37 38
68 72 72 72 71 70 69 67 64 61 60 59 58 55 53 49 47 49 50 45 42 48 53 57 53 41 34 28 23 22 17 19 30 46 48 42 34 31 37 51 56 46 46 56
67 68 71 73 72 72 72 70 66 64 64 60 57 56 51 49 50 52 52 51 48 51 59 66 64 57 46 43 38 36 37 28 40 48 51 51 41 37 23 19 30 44 53 54
59 67 66 67 71 72 71 69 67 63 63 59 56 55 53 52 55 54 54 55 51 54 56 63 61 58 53 51 49 36 37 42 48 49 48 43 37 44 49 55 51 43 46 50
55 63 64 62 65 67 67 66 67 66 62 58 55 56 56 56 52 52 50 50 50 51 55 57 62 57 57 58 53 47 48 48 49 54 47 45 47 53 55 45 39 41 40 46
56 56 62 63 62 61 61 60 61 59 56 53 52 51 51 51 49 50 51 53 58 55 56 55 60 60 56 62 55 57 59 60 62 62 56 54 61 62 60 49 45 43 32 39
46 49 48 57 61 61 58 57 56 56 55 49 49 48 49 50 49 48 50 50 49 45 48 49 56 57 59 65 60 59 66 69 68 66 65 66 67 64 58 54 52 50 41 34
47 44 49 48 51 57 57 55 53 52 52 50 50 48 49 48 46 48 48 39 37 39 39 44 50 59 60 63 61 59 63 65 66 68 66 68 63 64 46 45 45 46 38 32
47 46 45 47 50 50 52 55 51 51 49 51 47 46 44 42 37 37 37 43 41 41 41 44 53 61 61 59 64 62 61 64 67 71 73 71 71 76 72 70 61 56 51 42
40 46 52 57 55 49 47 48 45 45 44 46 46 42 43 42 35 32 34 37 45 48 46 45 50 57 60 67 69 66 68 71 73 78 76 76 84 78 81 77 69 72 73 60
43 39 39 43 45 46 50 52 42 40 40 45 44 41 46 45 43 40 41 41 41 43 48 52 55 56 60 67 75 81 85 78 82 75 82 83 87 96 94 86 90 88 85 80
44 41 37 33 32 32 34 39 44 46 45 46 46 46 49 53 57 50 50 48 45 42 41 42 48 50 55 57 66 64 62 70 77 78 76 81 89 88 86 93 98 94 94 93
43 42 39 36 36 32 34 34 35 37 39 42 44 46 48 49 51 53 50 47 47 47 46 47 46 45 46 49 53 58 66 70 69 72 78 78 79 73 83 88 90 92 99 94
36 38 41 41 39 36 34 35 37 38 39 43 44 46 48 49 48 46 46 45 45 46 44 44 46 49 51 50 51 53 57 63 66 67 68 66 68 68 72 77 84 83 78 79
36 31 30 32 32 29 27 29 28 26 27 30 33 35 35 37 39 38 36 36 39 41 42 42 42 43 46 46 47 54 62 66 68 69 74 73 73 77 75 76 81 86 88 89
35 32 32 32 32 28 27 27 25 14 17 20 20 23 22 24 29 33 35 37 40 42 45 46 49 48 49 51 55 56 62 64 66 71 75 75 76 79 81 83 82 81 81 81
33 34 35 36 29 34 30 26 27 29 23 31 32 32 33 35 37 40 44 46 47 46 47 48 47 54 53 50 59 71 75 73 77 76 70 69 71 72 72 71 70 69 69 69
32 34 34 33 32 32 31 29 32 37 37 37 40 44 45 47 48 48 47 47 47 50 53 60 58 60 56 64 70 79 81 80 71 66 65 64 64 62 59 59 60 59 59 59
Wind_Direction
220 223 223 225 229 233 233 230 230 239 240 241 241 246 255 267 277 287 296 304 308 316 329 328 321 321 320 271 275 278 282 280 270 255 240 228 229 232 230 228 231 231 230 228
215 219 218 220 223 227 227 229 230 233 239 242 242 247 254 261 273 282 292 297 303 323 321 317 312 314 312 287 280 276 280 284 272 254 240 233 227 235 237 229 224 223 225 228
216 218 217 218 220 224 225 224 226 231 236 244 241 248 252 258 269 284 286 292 314 325 306 299 298 299 309 289 299 284 285 286 278 252 232 231 225 224 232 237 234 227 227 228
219 220 216 212 217 219 221 222 223 228 235 243 244 246 252 257 264 276 279 293 311 320 330 326 319 299 295 307 329 316 289 279 234 226 220 215 216 216 222 225 230 232 233 237
220 222 215 211 216 218 220 219 221 226 231 238 242 240 249 255 257 259 270 284 263 274 23 16 4 357 42 24 333 309 303 260 169 166 173 173 188 195 197 205 218 223 229 235
217 221 217 214 215 217 220 220 223 225 229 234 240 243 246 251 250 259 266 271 241 230 40 55 54 46 50 37 17 324 320 159 144 143 141 136 143 147 143 146 161 177 193 199
217 219 218 217 217 217 216 220 224 226 230 235 239 242 245 249 253 256 264 258 220 208 202 170 80 19 34 349 5 356 139 150 131 123 119 124 134 145 152 169 190 230 245 228
219 218 220 221 220 220 218 220 224 227 231 236 240 244 247 251 252 249 256 250 223 213 203 230 139 81 60 68 84 143 171 160 169 155 142 185 215 236 250 252 249 235 238 244
219 221 218 223 223 222 224 225 224 226 229 233 238 241 245 247 250 254 263 262 234 219 222 234 208 154 144 130 135 177 174 183 221 229 241 247 238 253 259 272 256 253 256 264
220 222 221 223 226 226 227 229 230 231 235 236 240 244 248 253 258 261 259 261 233 239 232 217 227 237 209 200 164 184 197 279 264 258 250 272 277 275 285 274 286 257 257 260
222 222 222 224 226 229 231 233 233 234 237 240 244 247 252 256 258 260 261 256 238 240 241 240 239 243 250 230 199 193 208 221 257 262 253 268 274 294 277 267 274 282 270 263
225 225 225 226 228 230 232 235 237 238 239 241 245 250 254 258 258 257 259 260 257 242 241 243 243 249 252 238 240 233 239 223 221 250 250 258 263 273 299 297 293 284 276 277
227 229 229 229 231 234 237 240 243 244 247 248 251 252 254 259 254 254 256 259 258 250 249 243 246 245 251 240 239 236 231 224 238 244 247 256 256 262 281 280 288 295 267 265
225 231 233 233 233 235 238 241 244 246 250 254 255 256 255 253 253 257 259 254 255 257 256 251 251 247 243 234 249 228 231 233 239 244 258 259 265 276 286 292 286 286 292 267
228 228 231 234 236 238 240 243 245 247 249 250 250 252 252 254 251 254 260 256 258 260 256 255 251 253 242 238 246 243 239 245 245 250 263 272 274 275 279 278 282 293 297 271
237 233 232 232 233 238 241 243 247 250 252 250 248 244 250 252 258 261 264 261 262 263 253 249 248 252 248 243 252 248 243 248 258 263 265 272 274 276 278 275 284 285 295 290
239 240 235 236 236 237 241 244 248 250 250 244 246 258 254 257 262 261 260 254 257 255 241 233 234 240 244 240 244 248 252 255 259 263 265 269 280 279 284 289 290 287 281 267
239 238 240 239 239 237 238 241 245 245 247 249 251 253 256 257 255 256 256 251 250 250 246 247 235 236 243 242 244 250 257 260 261 265 264 271 276 276 274 276 274 280 286 270
240 242 244 245 243 242 242 242 243 244 246 239 240 246 249 246 253 263 272 269 261 258 254 254 250 240 243 243 246 254 261 262 263 266 267 270 270 279 277 277 284 280 275 270
232 236 242 242 242 243 243 245 243 240 252 239 242 249 247 245 253 272 277 276 268 262 259 260 259 255 252 253 252 256 257 266 269 282 278 281 274 272 280 278 277 280 284 281
230 231 240 238 240 239 239 242 241 241 241 243 245 250 253 251 250 269 279 276 271 271 269 266 264 262 265 268 261 266 271 273 278 279 282 282 286 281 281 279 277 279 278 280
228 227 229 232 232 237 238 239 234 237 244 249 251 252 255 254 264 272 272 270 269 271 274 275 278 280 278 277 278 278 279 284 285 284 283 282 280 279 279 279 280 277 274 276
218 222 227 229 231 233 236 239 242 245 248 251 254 259 263 266 265 265 268 269 269 269 272 275 277 281 283 286 287 289 289 286 286 284 282 281 281 282 279 277 276 273 271 271
214 215 217 222 225 227 228 233 239 242 247 251 251 252 253 254 258 263 266 267 272 275 277 280 281 282 283 283 287 285 282 278 282 280 277 280 282 279 281 281 277 276 276 275
209 215 220 219 206 201 207 219 216 235 256 255 243 243 251 257 262 268 274 273 273 277 279 280 279 278 284 284 293 300 302 298 293 291 288 286 283 281 277 275 275 274 272 270
205 208 202 209 213 207 216 233 241 232 254 249 253 257 261 262 266 271 279 280 285 292 285 292 295 305 299 298 312 317 316 309 303 298 292 286 283 280 278 277 276 275 274 273
200 201 208 220 224 230 234 248 256 260 266 264 264 269 272 276 280 286 286 283 281 286 291 296 302 311 309 312 310 315 311 308 302 295 291 288 284 281 280 278 277 276 275 274
Height
10807 10817 10828 10839 10849 10859 10869 10872 10874 10870 10878 10881 10883 10884 10884 10884 10885 10884 10881 10880 10877 10876 10875 10869 10864 10857 10853 10852 10855 10855 10854 10851 10849 10849 10851 10854 10861 10867 10870 10874 10880 10886 10891 10898
10790 10799 10812 10826 10838 10850 10860 10865 10867 10866 10867 10873 10876 10877 10879 10880 10880 10879 10877 10874 10873 10873 10868 10863 10859 10854 10850 10849 10849 10849 10848 10846 10844 10843 10845 10849 10853 10858 10863 10866 10869 10876 10883 10889
10779 10786 10799 10815 10831 10840 10849 10855 10859 10860 10861 10863 10869 10872 10874 10875 10875 10875 10873 10871 10872 10869 10864 10858 10853 10849 10844 10844 10843 10842 10842 10840 10838 10839 10842 10845 10849 10852 10856 10862 10867 10871 10876 10880
10764 10773 10792 10810 10815 10825 10835 10845 10851 10853 10854 10856 10861 10865 10867 10869 10870 10869 10869 10869 10868 10866 10860 10853 10846 10841 10839 10839 10839 10837 10836 10833 10831 10833 10836 10840 10844 10847 10850 10855 10860 10866 10871 10874
10751 10767 10786 10795 10803 10813 10823 10834 10840 10843 10843 10844 10850 10856 10859 10861 10862 10862 10863 10864 10863 10862 10855 10848 10842 10839 10836 10834 10833 10833 10832 10831 10827 10826 10830 10836 10843 10846 10848 10851 10854 10858 10862 10867
10739 10752 10775 10785 10789 10800 10811 10823 10825 10827 10829 10833 10839 10846 10848 10851 10854 10855 10856 10857 10858 10857 10852 10848 10842 10841 10835 10832 10830 10831 10834 10832 10831 10831 10833 10835 10836 10841 10845 10847 10851 10856 10859 10861
10728 10741 10760 10771 10777 10786 10800 10806 10808 10814 10820 10824 10829 10833 10838 10842 10846 10848 10848 10849 10851 10848 10846 10842 10837 10839 10833 10834 10835 10835 10832 10838 10838 10837 10840 10839 10839 10839 10841 10846 10848 10850 10855 10856
10719 10732 10748 10759 10768 10778 10783 10788 10796 10804 10811 10815 10819 10823 10828 10832 10834 10836 10838 10840 10839 10839 10837 10836 10833 10832 10831 10827 10829 10831 10833 10834 10841 10835 10832 10839 10838 10838 10838 10840 10842 10843 10843 10846
10710 10722 10737 10743 10754 10763 10768 10774 10781 10789 10796 10802 10806 10810 10813 10818 10824 10827 10829 10831 10830 10830 10828 10827 10827 10823 10827 10826 10830 10832 10835 10838 10839 10840 10836 10832 10835 10835 10836 10838 10838 10838 10838 10837
10701 10713 10723 10730 10739 10748 10754 10762 10770 10779 10787 10792 10796 10800 10804 10810 10816 10815 10815 10817 10818 10816 10819 10820 10816 10817 10824 10826 10823 10825 10828 10828 10832 10839 10836 10833 10829 10829 10830 10831 10832 10832 10830 10829
10689 10697 10706 10717 10727 10736 10742 10750 10759 10768 10773 10779 10784 10788 10793 10797 10800 10800 10801 10803 10806 10807 10805 10805 10806 10806 10813 10816 10814 10813 10814 10813 10827 10832 10828 10824 10818 10818 10819 10820 10819 10820 10820 10819
10676 10687 10696 10703 10713 10722 10729 10736 10745 10753 10759 10767 10773 10778 10783 10786 10786 10786 10787 10788 10790 10792 10791 10791 10794 10797 10803 10802 10802 10800 10803 10807 10807 10810 10808 10806 10804 10805 10805 10806 10807 10804 10805 10806
10668 10676 10686 10696 10703 10709 10717 10725 10733 10741 10746 10755 10762 10765 10768 10769 10768 10769 10771 10772 10772 10773 10772 10776 10781 10787 10791 10790 10788 10785 10788 10789 10791 10793 10793 10792 10790 10793 10792 10793 10794 10793 10788 10787
10653 10662 10671 10680 10690 10698 10706 10713 10719 10726 10734 10740 10745 10748 10750 10751 10753 10755 10756 10757 10756 10759 10759 10762 10766 10772 10776 10775 10776 10776 10774 10773 10774 10774 10774 10776 10777 10780 10781 10778 10779 10778 10775 10773
10639 10647 10656 10666 10676 10685 10693 10700 10705 10714 10720 10725 10730 10732 10734 10736 10738 10740 10741 10741 10743 10744 10746 10749 10752 10754 10761 10762 10762 10762 10763 10761 10759 10759 10760 10761 10763 10764 10764 10764 10767 10764 10762 10759
10634 10643 10650 10655 10663 10672 10679 10686 10693 10699 10704 10710 10713 10716 10719 10721 10723 10724 10724 10726 10728 10731 10732 10736 10739 10741 10745 10748 10749 10749 10748 10747 10746 10748 10746 10745 10746 10748 10749 10749 10747 10747 10749 10747
10625 10631 10637 10643 10652 10659 10667 10674 10680 10685 10690 10695 10699 10700 10702 10704 10708 10709 10710 10712 10715 10717 10720 10722 10723 10726 10728 10731 10730 10730 10732 10734 10732 10733 10733 10733 10732 10731 10733 10733 10733 10733 10732 10731
10614 10620 10627 10633 10639 10648 10654 10660 10667 10671 10676 10680 10683 10685 10688 10691 10695 10697 10698 10700 10701 10703 10705 10707 10709 10709 10712 10714 10715 10715 10715 10715 10717 10716 10716 10715 10714 10713 10715 10717 10718 10718 10720 10719
10604 10610 10617 10620 10626 10635 10641 10647 10653 10657 10661 10664 10668 10672 10675 10679 10682 10684 10685 10686 10689 10690 10692 10694 10694 10695 10696 10697 10698 10698 10698 10699 10699 10697 10694 10694 10695 10693 10693 10694 10693 10696 10700 10703
10596 10601 10605 10608 10614 10623 10629 10633 10638 10644 10648 10651 10655 10659 10663 10665 10666 10668 10670 10671 10672 10674 10676 10678 10679 10680 10680 10680 10681 10680 10680 10679 10678 10674 10672 10670 10673 10674 10669 10668 10670 10669 10668 10668
10585 10591 10596 10601 10606 10610 10614 10620 10625 10631 10634 10638 10642 10647 10649 10651 10654 10655 10655 10656 10657 10657 10658 10659 10660 10661 10662 10662 10664 10661 10659 10660 10660 10654 10650 10649 10643 10641 10642 10641 10642 10641 10639 10636
10575 10582 10588 10592 10597 10602 10607 10613 10617 10620 10623 10625 10629 10633 10636 10638 10640 10641 10641 10641 10640 10640 10640 10641 10642 10642 10643 10641 10638 10637 10635 10634 10630 10626 10623 10619 10616 10610 10608 10608 10606 10603 10603 10601
10567 10572 10578 10583 10588 10593 10598 10603 10607 10609 10612 10614 10617 10619 10621 10624 10625 10626 10627 10628 10628 10627 10627 10627 10626 10624 10621 10616 10613 10611 10610 10609 10605 10600 10597 10592 10587 10580 10576 10574 10575 10571 10568 10563
10557 10564 10569 10574 10578 10583 10589 10593 10596 10599 10601 10604 10606 10608 10610 10612 10613 10615 10614 10614 10613 10612 10611 10610 10608 10607 10606 10604 10597 10592 10590 10589 10584 10579 10572 10564 10558 10553 10549 10544 10540 10535 10531 10529
10549 10556 10562 10566 10571 10575 10581 10585 10588 10591 10594 10595 10596 10599 10600 10601 10602 10603 10602 10602 10600 10600 10600 10600 10598 10594 10588 10581 10575 10573 10569 10563 10556 10549 10541 10535 10529 10525 10519 10514 10509 10504 10499 10495
10544 10549 10555 10561 10564 10568 10571 10574 10578 10581 10584 10586 10589 10590 10591 10592 10592 10591 10590 10588 10587 10585 10582 10579 10574 10571 10566 10564 10558 10552 10544 10537 10529 10521 10512 10505 10498 10491 10485 10480 10476 10472 10469 10466
10540 10546 10551 10554 10557 10560 10563 10565 10569 10571 10573 10575 10576 10576 10576 10576 10576 10574 10572 10570 10569 10567 10564 10561 10556 10550 10544 10539 10534 10528 10520 10510 10498 10487 10479 10473 10468 10464 10460 10456 10451 10446 10443 10440